Simultaneous Nadir Overpasses (SNOs) Predictions

Prediction of SNOs between AQUA and METOP-B Satellite Orbit:

Table of predicted SNOs for the next 14.0 days since TLE Epoch: 9/30/2023
Index Date (AQUA) Time (AQUA) Lat,Lon (AQUA) SZA (AQUA ) Date (METOP-B) Time (METOP-B) Lat,Lon (METOP-B) SZA (METOP-B ) Distance(km) Time Diff (sec)
1 09/30/2023 06:21:59 74.82, 80.81 77.46 09/30/2023 06:20:49 74.83, 80.88 77.47 2.10 70
2 09/30/2023 07:11:23 -74.88,-111.68 102.48 09/30/2023 07:11:30 -74.86,-111.70 102.49 1.55 7
3 09/30/2023 08:00:54 75.17, 55.17 77.85 09/30/2023 08:02:04 75.14, 56.43 77.81 35.87 70
4 10/02/2023 23:24:25 -74.52, 5.97 101.80 10/02/2023 23:23:16 -74.46, 4.30 101.85 50.14 69
5 10/03/2023 00:13:57 74.88, 172.71 78.58 10/03/2023 00:13:47 74.88, 172.77 78.59 1.95 10
6 10/03/2023 01:03:21 -74.93, -19.77 101.36 10/03/2023 01:04:28 -74.92, -19.80 101.37 1.22 67
7 10/05/2023 17:16:27 -74.86, 97.17 100.40 10/05/2023 17:16:07 -74.85, 97.08 100.41 3.05 20
8 10/05/2023 18:05:53 74.91, -95.33 79.67 10/05/2023 18:06:45 74.93, -95.36 79.69 1.78 52
9 10/08/2023 10:18:57 74.87, 21.54 80.65 10/08/2023 10:18:22 74.89, 21.61 80.67 2.43 35
10 10/08/2023 11:08:21 -74.92,-170.94 99.29 10/08/2023 11:09:03 -74.93,-170.95 99.28 0.68 42
11 10/11/2023 03:21:24 -74.86, -54.00 98.34 10/11/2023 03:20:41 -74.88, -54.01 98.32 2.26 43
12 10/11/2023 04:10:50 74.92, 113.48 81.74 10/11/2023 04:11:20 74.90, 113.41 81.73 2.75 30
13 10/13/2023 20:23:52 74.88,-129.65 82.71 10/13/2023 20:22:57 74.89,-129.55 82.71 2.83 55
14 10/13/2023 21:13:16 -74.93, 37.89 97.24 10/13/2023 21:13:38 -74.93, 37.90 97.23 0.77 22



Historial Predications of SNOs between AQUA and METOP-B
